HDA443 RCTP-VHHX

Flight info

Callsign HDA443
Flight time N/A
Altitude 36000
Route CHALI1C CHALI T3 MKG A1 ELATO
Aircraft A321/M-SDE3FGHIRWY/LB1

Departure

Time N/A
Airport Taiwan Taoyuan International Airport (RCTP)

Arrival

Time 2026-05-04 11:08
Airport Hong Kong International Airport Kai Tak (VHHX)
Time Latitude Longitude Altitude Speed Heading
2026-05-04 09:51 24.91841 120.71024 21496 ft 377 kts 227°
2026-05-04 09:51 24.90568 120.69657 21792 ft 377 kts 227°
2026-05-04 09:51 24.88030 120.66944 22253 ft 380 kts 227°
2026-05-04 09:51 24.86119 120.64908 22590 ft 382 kts 228°
2026-05-04 09:52 24.84195 120.62855 22937 ft 384 kts 227°
2026-05-04 09:52 24.82285 120.60809 23288 ft 386 kts 227°
2026-05-04 09:52 24.80344 120.58733 23638 ft 388 kts 227°
2026-05-04 09:52 24.78403 120.56657 23963 ft 390 kts 228°
2026-05-04 09:53 24.76427 120.54540 24311 ft 392 kts 228°
2026-05-04 09:53 24.74404 120.52474 24646 ft 395 kts 225°
2026-05-04 09:53 24.72318 120.50551 24937 ft 399 kts 223°
2026-05-04 09:53 24.70083 120.48698 25238 ft 402 kts 220°
2026-05-04 09:54 24.67759 120.46922 25552 ft 404 kts 219°
2026-05-04 09:54 24.65440 120.45157 25862 ft 406 kts 219°
2026-05-04 09:54 24.63126 120.43398 26171 ft 407 kts 219°
2026-05-04 09:54 24.60771 120.41613 26454 ft 409 kts 219°
2026-05-04 09:55 24.58433 120.39841 26735 ft 411 kts 219°
2026-05-04 09:55 24.56069 120.38050 27035 ft 412 kts 219°
2026-05-04 09:55 24.53691 120.36251 27329 ft 414 kts 219°
2026-05-04 09:55 24.51287 120.34431 27590 ft 416 kts 219°
2026-05-04 09:56 24.48896 120.32612 27855 ft 418 kts 219°
2026-05-04 09:56 24.46467 120.30766 28137 ft 420 kts 219°
2026-05-04 09:56 24.44066 120.28931 28431 ft 420 kts 219°
2026-05-04 09:56 24.41685 120.27078 28818 ft 419 kts 219°
2026-05-04 09:57 24.39313 120.25229 29230 ft 417 kts 220°
2026-05-04 09:57 24.36944 120.23383 29653 ft 415 kts 220°
2026-05-04 09:57 24.34586 120.21551 30052 ft 414 kts 220°
2026-05-04 09:57 24.32229 120.19719 30434 ft 412 kts 220°
2026-05-04 09:58 24.29887 120.17901 30828 ft 411 kts 220°
2026-05-04 09:58 24.27554 120.16092 31186 ft 410 kts 221°
2026-05-04 09:58 24.25195 120.14265 31533 ft 409 kts 221°
2026-05-04 10:00 24.09034 120.01756 33863 ft 402 kts 222°
2026-05-04 10:00 24.06758 119.99997 34141 ft 402 kts 222°
2026-05-04 10:02 23.90587 119.87526 35605 ft 408 kts 221°
2026-05-04 10:04 23.74151 119.74942 36025 ft 413 kts 221°
2026-05-04 10:04 23.69468 119.71352 36030 ft 413 kts 221°
2026-05-04 10:05 23.64838 119.67596 36031 ft 410 kts 225°
2026-05-04 10:05 23.60681 119.63421 36030 ft 406 kts 231°
2026-05-04 10:06 23.56984 119.58790 36030 ft 403 kts 236°
2026-05-04 10:06 23.53775 119.53760 36029 ft 401 kts 241°
2026-05-04 10:08 23.43304 119.35751 36027 ft 402 kts 241°
2026-05-04 10:08 23.40313 119.30594 36026 ft 403 kts 240°
2026-05-04 10:09 23.37331 119.25451 36023 ft 403 kts 240°
2026-05-04 10:09 23.34311 119.20264 36023 ft 403 kts 240°
2026-05-04 10:10 23.31299 119.15097 36020 ft 404 kts 240°
2026-05-04 10:10 23.28280 119.09927 36024 ft 404 kts 240°
2026-05-04 10:11 23.25259 119.04761 36021 ft 404 kts 240°
2026-05-04 10:11 23.22247 118.99614 36016 ft 404 kts 241°
2026-05-04 10:12 23.19200 118.94412 36021 ft 405 kts 241°
2026-05-04 10:12 23.16170 118.89243 36018 ft 405 kts 240°
2026-05-04 10:13 23.13134 118.84074 36014 ft 405 kts 240°
2026-05-04 10:13 23.10090 118.78891 36010 ft 405 kts 240°
2026-05-04 10:14 23.07044 118.73715 36020 ft 405 kts 240°
2026-05-04 10:16 22.94853 118.53057 36026 ft 407 kts 240°
2026-05-04 10:16 22.91791 118.47894 36027 ft 407 kts 240°
2026-05-04 10:17 22.88716 118.42733 36031 ft 407 kts 240°
2026-05-04 10:19 22.76358 118.22053 36038 ft 409 kts 240°
2026-05-04 10:19 22.73273 118.16892 36034 ft 409 kts 240°
2026-05-04 10:20 22.70199 118.11757 36035 ft 409 kts 240°
2026-05-04 10:20 22.67101 118.06587 36028 ft 409 kts 240°
2026-05-04 10:21 22.63981 118.01386 36028 ft 410 kts 240°
2026-05-04 10:21 22.60883 117.96230 36031 ft 410 kts 240°
2026-05-04 10:22 22.56245 117.88429 36038 ft 409 kts 240°
2026-05-04 10:23 22.53174 117.83260 36044 ft 408 kts 240°
2026-05-04 10:25 22.41818 117.64214 36015 ft 320 kts 241°
2026-05-04 10:25 22.39389 117.60132 36025 ft 327 kts 241°
2026-05-04 10:26 22.36932 117.55903 36036 ft 339 kts 244°
2026-05-04 10:26 22.34942 117.51172 36036 ft 351 kts 252°
2026-05-04 10:27 22.33675 117.46008 36042 ft 363 kts 261°
2026-05-04 10:27 22.33224 117.40475 36038 ft 376 kts 268°
2026-05-04 10:28 22.33107 117.34714 36039 ft 389 kts 268°
2026-05-04 10:28 22.32999 117.28816 36040 ft 402 kts 268°
2026-05-04 10:29 22.32885 117.22662 36038 ft 413 kts 268°
2026-05-04 10:29 22.32768 117.16441 36034 ft 412 kts 268°
2026-05-04 10:30 22.32651 117.10328 36039 ft 406 kts 268°
2026-05-04 10:30 22.32531 117.04203 36036 ft 406 kts 268°
2026-05-04 10:31 22.32407 116.98093 36039 ft 406 kts 268°
2026-05-04 10:32 22.31962 116.76762 36041 ft 406 kts 268°
2026-05-04 10:33 22.31829 116.70640 36037 ft 406 kts 268°
2026-05-04 10:33 22.31694 116.64546 36033 ft 406 kts 268°
2026-05-04 10:34 22.31557 116.58469 36031 ft 405 kts 268°
2026-05-04 10:34 22.31419 116.52407 35652 ft 404 kts 268°
2026-05-04 10:35 22.31349 116.49389 35381 ft 401 kts 268°
2026-05-04 10:35 22.31281 116.46397 35110 ft 398 kts 268°
2026-05-04 10:35 22.31210 116.43420 34839 ft 396 kts 268°
2026-05-04 10:35 22.31138 116.40427 34568 ft 396 kts 268°
2026-05-04 10:36 22.31068 116.37485 34298 ft 397 kts 268°
2026-05-04 10:36 22.30996 116.34496 34028 ft 398 kts 267°
2026-05-04 10:36 22.30923 116.31475 33760 ft 399 kts 267°
2026-05-04 10:36 22.30848 116.28459 33492 ft 400 kts 267°
2026-05-04 10:37 22.30776 116.25468 33224 ft 401 kts 267°
2026-05-04 10:37 22.30701 116.22451 32961 ft 402 kts 267°
2026-05-04 10:37 22.30627 116.19437 32698 ft 404 kts 267°
2026-05-04 10:37 22.30550 116.16384 32448 ft 405 kts 266°
2026-05-04 10:39 22.30070 115.97987 30924 ft 410 kts 266°
2026-05-04 10:39 22.29986 115.94912 30669 ft 411 kts 266°
2026-05-04 10:39 22.29900 115.91833 30416 ft 412 kts 266°
2026-05-04 10:40 22.29815 115.88722 30162 ft 414 kts 266°
2026-05-04 10:40 22.29731 115.85648 29911 ft 415 kts 266°
2026-05-04 10:40 22.29645 115.82536 29658 ft 416 kts 266°
2026-05-04 10:40 22.29547 115.79427 29407 ft 418 kts 266°
2026-05-04 10:41 22.29435 115.76267 29154 ft 419 kts 266°
2026-05-04 10:41 22.29319 115.73109 28901 ft 421 kts 266°
2026-05-04 10:41 22.29203 115.69952 28652 ft 422 kts 266°
2026-05-04 10:41 22.29084 115.66778 28404 ft 423 kts 266°
2026-05-04 10:42 22.28965 115.63597 28157 ft 424 kts 266°
2026-05-04 10:42 22.28846 115.60428 27911 ft 422 kts 266°
2026-05-04 10:42 22.28725 115.57238 27662 ft 421 kts 266°
2026-05-04 10:42 22.28605 115.54087 27414 ft 419 kts 266°
2026-05-04 10:43 22.28486 115.50943 27166 ft 418 kts 266°
2026-05-04 10:44 22.27633 115.29228 25379 ft 409 kts 266°
2026-05-04 10:45 22.27511 115.26183 25012 ft 407 kts 266°
2026-05-04 10:45 22.27389 115.23151 24568 ft 404 kts 266°
2026-05-04 10:45 22.27268 115.20141 24082 ft 401 kts 266°
2026-05-04 10:45 22.27128 115.17133 23582 ft 397 kts 265°
2026-05-04 10:46 22.26871 115.14198 23069 ft 393 kts 262°
2026-05-04 10:46 22.26474 115.11292 22552 ft 389 kts 259°
2026-05-04 10:46 22.25971 115.08408 22042 ft 386 kts 259°
2026-05-04 10:46 22.25465 115.05594 21532 ft 383 kts 258°
2026-05-04 10:47 22.24955 115.02768 21004 ft 381 kts 258°
2026-05-04 10:47 22.24478 115.00123 20509 ft 379 kts 259°
2026-05-04 10:47 22.23977 114.97336 19980 ft 377 kts 259°
2026-05-04 10:47 22.23548 114.94531 19462 ft 375 kts 262°
2026-05-04 10:49 22.23009 114.75288 15933 ft 360 kts 269°
2026-05-04 10:49 22.22977 114.72599 15426 ft 358 kts 268°
2026-05-04 10:50 22.22943 114.69921 14919 ft 356 kts 268°
2026-05-04 10:51 22.22723 114.52712 14015 ft 319 kts 268°
2026-05-04 10:52 22.22695 114.50322 13809 ft 314 kts 268°
2026-05-04 10:52 22.22666 114.47967 13309 ft 315 kts 268°
2026-05-04 10:52 22.22634 114.45602 12838 ft 314 kts 268°
2026-05-04 10:54 22.22410 114.29735 10120 ft 265 kts 268°
2026-05-04 10:54 22.22381 114.27768 9575 ft 261 kts 268°
2026-05-04 10:56 22.22163 114.13834 8003 ft 270 kts 268°
2026-05-04 10:56 22.22131 114.11821 8006 ft 269 kts 268°
2026-05-04 10:56 22.22099 114.09803 8004 ft 269 kts 268°
2026-05-04 10:57 22.22066 114.07755 8002 ft 270 kts 268°
2026-05-04 10:57 22.22034 114.05772 7903 ft 261 kts 268°
2026-05-04 10:57 22.22003 114.03831 7870 ft 257 kts 269°
2026-05-04 10:57 22.21962 114.01870 7727 ft 258 kts 268°
2026-05-04 10:58 22.21899 113.99950 7473 ft 256 kts 268°
2026-05-04 10:58 22.21832 113.98027 7209 ft 254 kts 268°
2026-05-04 10:58 22.21767 113.96143 6974 ft 250 kts 268°
2026-05-04 10:58 22.21705 113.94283 6725 ft 245 kts 268°
2026-05-04 10:59 22.21644 113.92462 6479 ft 242 kts 268°
2026-05-04 10:59 22.21585 113.90651 6238 ft 238 kts 269°
2026-05-04 10:59 22.21870 113.88924 6030 ft 231 kts 300°
2026-05-04 10:59 22.23018 113.87770 6005 ft 226 kts 334°
2026-05-04 11:00 22.24574 113.87494 5968 ft 232 kts
2026-05-04 11:01 22.32178 113.95070 4296 ft 201 kts 90°
2026-05-04 11:02 22.32135 113.96520 4155 ft 192 kts 92°
2026-05-04 11:02 22.32103 113.97961 3986 ft 190 kts 91°
2026-05-04 11:05 22.32982 114.14371 1041 ft 135 kts 86°
2026-05-04 11:06 22.33040 114.15389 891 ft 136 kts 85°
2026-05-04 11:06 22.33108 114.16423 751 ft 136 kts 86°
2026-05-04 11:06 22.33162 114.17430 546 ft 136 kts 86°
2026-05-04 11:06 22.33077 114.18441 360 ft 136 kts 110°
2026-05-04 11:08 22.31164 114.20921 35 ft 16 kts 314°
2026-05-04 11:10 22.31551 114.20489 35 ft 18 kts 314°